FW6720 Weather Reports


Display with metric or nautical units.
time (UTC)temp
F
wind
direction
speed
MPH
gust
MPH
rain 1hr
in
rain 24hr
in
rain mn
in
humidity
%
barometer
mb
20220702232730 68 169 0.0 1.0 0.00 0.00 0.00 66 1015.3
20220702232229 69 168 1.0 1.0 0.00 0.00 0.00 71 1015.1
20220702231728 69 170 0.0 0.0 0.00 0.00 0.00 64 1015.1
20220702231228 69 171 1.0 2.0 0.00 0.00 0.00 65 1015.1
20220702230728 68 24 0.0 0.0 0.00 0.00 0.00 65 1015.0
20220702230227 68 15 0.0 0.0 0.00 0.00 0.00 64 1015.2
20220702225726 68 352 0.0 0.0 0.00 0.00 0.00 68 1015.1
20220702225226 69 351 1.0 1.0 0.00 0.00 0.00 64 1015.1
20220702224725 70 351 1.0 1.0 0.00 0.00 0.00 63 1015.0
20220702224224 70 351 0.0 1.0 0.00 0.00 0.00 61 1015.3
20220702223723 70 351 1.0 1.0 0.00 0.00 0.00 61 1015.2
20220702223223 70 162 2.0 2.0 0.00 0.00 0.00 61 1015.1
20220702222722 69 27 0.0 1.0 0.00 0.00 0.00 64 1015.2
20220702222221 68 26 0.0 1.0 0.00 0.00 0.00 65 1015.1
20220702221720 68 145 1.0 1.0 0.00 0.00 0.00 67 1015.3
20220702221218 68 145 1.0 1.0 0.00 0.00 0.00 69 1015.3
20220702220718 68 19 1.0 2.0 0.00 0.00 0.00 68 1015.3
20220702220216 69 154 1.0 2.0 0.00 0.00 0.00 66 1015.3
20220702215715 68 155 0.0 0.0 0.00 0.00 0.00 71 1015.4
20220702215214 68 197 0.0 0.0 0.00 0.00 0.00 70 1015.4
20220702214713 67 21 2.0 3.0 0.00 0.00 0.00 68 1015.4
20220702214214 67 357 2.0 2.0 0.00 0.00 0.00 68 1015.4
20220702213713 68 358 0.0 0.0 0.00 0.00 0.00 69 1015.4
20220702213211 68 358 0.0 0.0 0.00 0.00 0.00 68 1015.5
20220702212711 70 53 1.0 1.0 0.00 0.00 0.00 67 1015.6
20220702212211 69 345 1.0 1.0 0.00 0.00 0.00 65 1015.5
20220702211711 68 346 1.0 1.0 0.00 0.00 0.00 69 1015.6
20220702211211 68 347 0.0 1.0 0.00 0.00 0.00 66 1015.6
20220702210710 68 328 1.0 1.0 0.00 0.00 0.00 66 1015.6
20220702210208 70 274 2.0 2.0 0.00 0.00 0.00 65 1015.6
20220702205707 69 276 0.0 1.0 0.00 0.00 0.00 67 1015.8
20220702205207 69 152 1.0 1.0 0.00 0.00 0.00 67 1015.9
20220702204706 67 352 0.0 0.0 0.00 0.00 0.00 67 1015.7
20220702204207 66 37 0.0 0.0 0.00 0.00 0.00 70 1015.9
20220702203706 66 38 2.0 2.0 0.00 0.00 0.00 70 1015.9
20220702203205 66 3 1.0 1.0 0.00 0.00 0.00 72 1015.9
20220702202703 67 60 1.0 1.0 0.00 0.00 0.00 69 1015.6
20220702202202 67 64 0.0 0.0 0.00 0.00 0.00 70 1016.1
20220702201701 67 141 0.0 0.0 0.00 0.00 0.00 69 1016.1
20220702201159 68 203 0.0 1.0 0.00 0.00 0.00 66 1016.1
20220702200659 67 223 0.0 0.0 0.00 0.00 0.00 69 1016.4
20220702200158 68 138 2.0 2.0 0.00 0.00 0.00 67 1016.3
20220702195657 67 138 0.0 0.0 0.00 0.00 0.00 70 1016.1
20220702195157 66 138 1.0 2.0 0.00 0.00 0.00 69 1016.2
20220702194656 66 138 0.0 0.0 0.00 0.00 0.00 70 1016.2
20220702194154 66 138 2.0 2.0 0.00 0.00 0.00 69 1016.4
20220702193653 65 147 1.0 1.0 0.00 0.00 0.00 71 1016.5
20220702193151 65 26 1.0 1.0 0.00 0.00 0.00 72 1016.2
20220702192650 66 27 1.0 1.0 0.00 0.00 0.00 69 1016.3
20220702192150 66 29 1.0 1.0 0.00 0.00 0.00 71 1016.5
20220702191649 65 27 1.0 1.0 0.00 0.00 0.00 72 1016.4
20220702191148 67 357 1.0 5.0 0.00 0.00 0.00 69 1016.5
20220702190647 68 87 0.0 0.0 0.00 0.00 0.00 68 1016.5
20220702190146 69 25 1.0 1.0 0.00 0.00 0.00 66 1016.3
20220702185644 68 162 1.0 1.0 0.00 0.00 0.00 67 1016.6
20220702185143 67 230 0.0 1.0 0.00 0.00 0.00 68 1016.6
20220702184642 65 231 0.0 0.0 0.00 0.00 0.00 69 1016.5
20220702184142 64 57 0.0 0.0 0.00 0.00 0.00 71 1016.4
20220702183640 65 10 0.0 0.0 0.00 0.00 0.00 74 1016.4
20220702183139 64 9 0.0 0.0 0.00 0.00 0.00 72 1016.4
20220702182638 65 12 0.0 0.0 0.00 0.00 0.00 71 1016.5
20220702182137 64 9 2.0 2.0 0.00 0.00 0.00 72 1016.6
20220702181636 65 143 1.0 2.0 0.00 0.00 0.00 69 1016.6
20220702181135 65 143 0.0 1.0 0.00 0.00 0.00 71 1016.6
20220702180634 65 143 0.0 1.0 0.00 0.00 0.00 71 1016.5
20220702180133 66 6 0.0 1.0 0.00 0.00 0.00 71 1016.6
20220702175633 68 151 1.0 2.0 0.00 0.00 0.00 67 1016.7
20220702175131 67 151 0.0 0.0 0.00 0.00 0.00 68 1016.6
20220702174630 66 151 1.0 1.0 0.00 0.00 0.00 71 1016.5
20220702174130 66 11 1.0 2.0 0.00 0.00 0.00 69 1016.6
20220702173630 66 12 1.0 1.0 0.00 0.00 0.00 70 1016.6
20220702173128 65 15 0.0 1.0 0.00 0.00 0.00 70 1016.5
20220702172627 65 11 1.0 1.0 0.00 0.00 0.00 72 1016.7
20220702172126 66 11 2.0 2.0 0.00 0.00 0.00 72 1017.0
20220702171626 65 11 0.0 1.0 0.00 0.00 0.00 70 1016.7
20220702171124 65 88 1.0 1.0 0.00 0.00 0.00 71 1017.0
20220702170623 66 30 0.0 0.0 0.00 0.00 0.00 69 1017.0
20220702170122 65 30 0.0 0.0 0.00 0.00 0.00 70 1016.9
20220702165620 64 29 1.0 2.0 0.00 0.00 0.00 71 1016.7
20220702165119 64 29 0.0 1.0 0.00 0.00 0.00 73 1016.7
20220702164618 64 30 2.0 2.0 0.00 0.00 0.00 74 1016.9
20220702164117 63 30 1.0 2.0 0.00 0.00 0.00 74 1017.2
20220702163616 60 203 0.0 0.0 0.00 0.00 0.00 78 1017.0
20220702163115 60 358 1.0 2.0 0.00 0.00 0.00 76 1017.2
20220702162614 60 359 1.0 2.0 0.00 0.00 0.00 78 1017.2
20220702162114 60 281 0.0 0.0 0.00 0.00 0.00 80 1017.3
20220702161613 59 282 0.0 0.0 0.00 0.00 0.00 84 1017.2
20220702161112 58 282 0.0 1.0 0.00 0.00 0.00 85 1017.4
20220702160611 58 282 1.0 1.0 0.00 0.00 0.00 86 1017.4
20220702160109 58 282 0.0 1.0 0.00 0.00 0.00 88 1017.4
20220702155608 58 282 0.0 0.0 0.00 0.00 0.00 86 1017.6
20220702155107 57 281 0.0 1.0 0.00 0.00 0.00 85 1017.6
20220702154606 57 282 0.0 1.0 0.00 0.00 0.00 86 1017.6
20220702154104 57 282 0.0 0.0 0.00 0.00 0.00 87 1017.5
20220702153604 56 282 0.0 0.0 0.00 0.00 0.00 89 1017.6
20220702153103 56 282 0.0 0.0 0.00 0.00 0.00 92 1017.7
20220702152603 55 282 0.0 0.0 0.00 0.00 0.00 92 1017.6
20220702152101 55 282 0.0 0.0 0.00 0.00 0.00 92 1017.6
20220702151600 55 282 0.0 0.0 0.00 0.00 0.00 92 1017.6
20220702151059 55 282 0.0 0.0 0.00 0.00 0.00 92 1017.7
20220702150558 54 282 0.0 0.0 0.00 0.00 0.00 93 1018.0
20220702150057 54 282 0.0 0.0 0.00 0.00 0.00 93 1018.0
20220702145556 53 282 0.0 0.0 0.00 0.00 0.00 94 1017.9
20220702145056 53 282 0.0 0.0 0.00 0.00 0.00 95 1017.9
20220702144555 52 282 0.0 0.0 0.00 0.00 0.00 96 1018.0
20220702144054 52 282 0.0 0.0 0.00 0.00 0.00 96 1017.9
20220702143552 51 282 0.0 0.0 0.00 0.00 0.00 96 1018.0
20220702143050 51 282 0.0 0.0 0.00 0.00 0.00 96 1018.1
20220702142549 51 282 0.0 0.0 0.00 0.00 0.00 96 1018.0
20220702142047 51 282 0.0 0.0 0.00 0.00 0.00 97 1018.0
20220702141546 50 282 0.0 0.0 0.00 0.00 0.00 97 1018.0
20220702141045 50 282 0.0 0.0 0.00 0.00 0.00 97 1018.0
20220702140544 50 282 0.0 0.0 0.00 0.00 0.00 97 1018.2
20220702140044 50 282 0.0 0.0 0.00 0.00 0.00 97 1018.1
20220702135542 50 282 0.0 0.0 0.00 0.00 0.00 97 1017.9
20220702135042 50 282 0.0 0.0 0.00 0.00 0.00 97 1018.1
20220702134541 49 282 0.0 0.0 0.00 0.00 0.00 97 1018.1
20220702134040 49 282 0.0 0.0 0.00 0.00 0.00 97 1018.0
20220702133538 49 282 0.0 0.0 0.00 0.00 0.00 98 1018.3
20220702133038 48 282 0.0 0.0 0.00 0.00 0.00 98 1018.3
20220702132536 48 282 0.0 0.0 0.00 0.00 0.00 98 1018.3
20220702132035 48 282 0.0 0.0 0.00 0.00 0.00 98 1018.4
20220702131534 48 282 0.0 0.0 0.00 0.00 0.00 98 1018.4
20220702131034 47 282 0.0 0.0 0.00 0.00 0.00 98 1018.3
20220702130533 47 282 0.0 0.0 0.00 0.00 0.00 98 1018.3
20220702130033 47 281 0.0 0.0 0.00 0.00 0.00 98 1018.5
20220702125533 47 281 0.0 0.0 0.00 0.00 0.00 98 1018.4
20220702125031 47 281 0.0 0.0 0.00 0.00 0.00 98 1018.4
20220702124530 47 281 0.0 0.0 0.00 0.00 0.00 98 1018.3
20220702124029 46 281 0.0 0.0 0.00 0.00 0.00 98 1018.3
20220702123529 46 281 0.0 0.0 0.00 0.00 0.00 98 1018.2
20220702123029 46 281 0.0 0.0 0.00 0.00 0.00 98 1018.4
20220702122529 46 281 0.0 0.0 0.00 0.00 0.00 98 1018.6
20220702122028 46 281 0.0 0.0 0.00 0.00 0.00 98 1018.5
20220702121527 46 281 0.0 0.0 0.00 0.00 0.00 98 1018.4
20220702121026 46 281 0.0 0.0 0.00 0.00 0.00 98 1018.6
20220702120525 46 281 0.0 0.0 0.00 0.00 0.00 98 1018.3
20220702120024 46 281 0.0 0.0 0.00 0.00 0.00 98 1018.4
20220702115523 46 281 0.0 0.0 0.00 0.00 0.00 98 1018.2
20220702115021 46 281 0.0 0.0 0.00 0.00 0.00 98 1018.3
20220702114521 46 281 0.0 0.0 0.00 0.00 0.00 98 1018.0
20220702114020 46 281 0.0 0.0 0.00 0.00 0.00 98 1018.1
20220702113519 46 281 0.0 0.0 0.00 0.00 0.00 98 1018.4
20220702113018 46 281 0.0 0.0 0.00 0.00 0.00 98 1018.5
20220702112517 46 281 0.0 0.0 0.00 0.00 0.00 98 1018.6
20220702112016 46 281 0.0 0.0 0.00 0.00 0.00 98 1018.3
20220702111515 46 281 0.0 0.0 0.00 0.00 0.00 98 1018.1
20220702111015 46 281 0.0 0.0 0.00 0.00 0.00 98 1018.5
20220702110514 46 281 0.0 0.0 0.00 0.00 0.00 98 1018.2
20220702110013 46 281 0.0 0.0 0.00 0.00 0.00 98 1018.3
20220702105512 46 281 0.0 0.0 0.00 0.00 0.00 98 1017.9
20220702105011 46 281 0.0 0.0 0.00 0.00 0.00 98 1018.2
20220702104511 46 281 0.0 0.0 0.00 0.00 0.00 98 1018.1
20220702104010 46 281 0.0 0.0 0.00 0.00 0.00 98 1018.2
20220702103509 46 281 0.0 0.0 0.00 0.00 0.00 98 1018.1
20220702103008 46 281 0.0 0.0 0.00 0.00 0.00 98 1018.3
20220702102507 46 281 0.0 0.0 0.00 0.00 0.00 98 1018.1
20220702102006 46 281 0.0 0.0 0.00 0.00 0.00 98 1018.1
20220702101505 47 281 0.0 0.0 0.00 0.00 0.00 98 1018.1
20220702101004 47 281 0.0 0.0 0.00 0.00 0.00 98 1018.3
20220702100503 47 281 0.0 0.0 0.00 0.00 0.00 98 1018.6
20220702100002 47 281 0.0 0.0 0.00 0.00 0.00 98 1018.3
20220702095502 47 281 0.0 0.0 0.00 0.00 0.00 98 1018.5
20220702095000 47 281 0.0 0.0 0.00 0.00 0.00 98 1018.3
20220702094459 47 281 0.0 0.0 0.00 0.00 0.00 98 1018.5
20220702093956 47 281 0.0 0.0 0.00 0.00 0.00 98 1018.3
20220702093455 47 281 0.0 0.0 0.00 0.00 0.00 98 1018.5
20220702092954 48 281 0.0 0.0 0.00 0.00 0.00 98 1018.4
20220702092453 47 281 0.0 0.0 0.00 0.00 0.00 97 1018.5
20220702091951 47 281 0.0 0.0 0.00 0.00 0.00 97 1018.5
20220702091450 48 281 0.0 0.0 0.00 0.00 0.00 97 1018.4
20220702090949 48 281 0.0 0.0 0.00 0.00 0.00 97 1018.6
20220702090447 48 281 0.0 0.0 0.00 0.00 0.00 97 1018.5
20220702085946 48 281 0.0 1.0 0.00 0.00 0.00 97 1018.5
20220702085445 48 281 0.0 0.0 0.00 0.00 0.00 97 1018.4
20220702084944 48 281 0.0 0.0 0.00 0.00 0.00 97 1018.5
20220702084443 48 281 0.0 0.0 0.00 0.00 0.00 97 1018.6
20220702083942 49 282 0.0 0.0 0.00 0.00 0.00 97 1018.5
20220702083440 48 282 0.0 0.0 0.00 0.00 0.00 97 1018.5
20220702082939 49 282 0.0 0.0 0.00 0.00 0.00 97 1018.6
20220702082438 49 282 0.0 0.0 0.00 0.00 0.00 97 1018.6
20220702081937 49 282 0.0 0.0 0.00 0.00 0.00 97 1018.4
20220702081436 49 282 0.0 0.0 0.00 0.00 0.00 97 1018.6
20220702080934 49 282 0.0 0.0 0.00 0.00 0.00 97 1018.6
20220702080433 49 282 0.0 0.0 0.00 0.00 0.00 97 1018.7
20220702075932 50 282 0.0 0.0 0.00 0.00 0.00 97 1018.8
20220702075431 50 282 0.0 0.0 0.00 0.00 0.00 97 1018.7
20220702074930 50 282 0.0 0.0 0.00 0.00 0.00 97 1018.8
20220702074429 50 282 0.0 0.0 0.00 0.00 0.00 97 1018.8
20220702073928 50 282 0.0 0.0 0.00 0.00 0.00 97 1018.6
20220702073427 50 282 0.0 0.0 0.00 0.00 0.00 97 1018.9
20220702072926 50 282 0.0 0.0 0.00 0.00 0.00 97 1019.0
20220702072425 50 282 0.0 0.0 0.00 0.00 0.00 97 1018.9
20220702071923 51 282 0.0 0.0 0.00 0.00 0.00 96 1018.8
20220702071423 51 282 0.0 0.0 0.00 0.00 0.00 96 1018.9
20220702070921 51 282 0.0 0.0 0.00 0.00 0.00 96 1019.0
20220702070421 51 282 0.0 0.0 0.00 0.00 0.00 96 1019.0
20220702065920 51 282 0.0 0.0 0.00 0.00 0.00 95 1019.2
20220702065419 51 282 0.0 0.0 0.00 0.00 0.00 95 1019.1
20220702064918 52 282 0.0 0.0 0.00 0.00 0.00 95 1018.7
20220702064417 52 282 0.0 0.0 0.00 0.00 0.00 95 1018.8
20220702063916 52 282 0.0 0.0 0.00 0.00 0.00 94 1019.0
20220702063415 52 282 0.0 0.0 0.00 0.00 0.00 94 1018.9
20220702062914 52 282 0.0 0.0 0.00 0.00 0.00 94 1018.9
20220702062413 53 282 0.0 0.0 0.00 0.00 0.00 94 1018.7
20220702061913 53 282 0.0 0.0 0.00 0.00 0.00 94 1018.7
20220702061412 53 282 0.0 0.0 0.00 0.00 0.00 93 1018.9
20220702060910 53 282 0.0 0.0 0.00 0.00 0.00 93 1019.0
20220702060409 53 282 0.0 0.0 0.00 0.00 0.00 93 1018.7
20220702055908 53 282 0.0 0.0 0.00 0.00 0.00 93 1018.8
20220702055408 54 282 0.0 0.0 0.00 0.00 0.00 92 1019.0
20220702054904 54 282 0.0 0.0 0.00 0.00 0.00 92 1018.8
20220702054403 54 282 0.0 0.0 0.00 0.00 0.00 92 1018.9
20220702053902 54 282 0.0 0.0 0.00 0.00 0.00 91 1018.8
20220702053401 55 282 0.0 0.0 0.00 0.00 0.00 91 1019.1
20220702052900 55 282 0.0 0.0 0.00 0.00 0.00 91 1018.8
20220702052359 55 282 0.0 0.0 0.00 0.00 0.00 91 1018.8
20220702051857 55 282 0.0 0.0 0.00 0.00 0.00 90 1018.8
20220702051357 56 282 0.0 0.0 0.00 0.00 0.00 90 1019.1
20220702050855 56 282 0.0 0.0 0.00 0.00 0.00 90 1018.9
20220702050354 56 282 0.0 0.0 0.00 0.00 0.00 89 1018.9
20220702045853 56 282 0.0 0.0 0.00 0.00 0.00 89 1019.0
20220702045352 57 282 0.0 0.0 0.00 0.00 0.00 88 1018.8
20220702044852 57 282 0.0 0.0 0.00 0.00 0.00 87 1018.9
20220702044350 57 282 0.0 0.0 0.00 0.00 0.00 86 1018.7
20220702043849 58 282 0.0 0.0 0.00 0.00 0.00 85 1018.8
20220702043348 58 281 0.0 0.0 0.00 0.00 0.00 85 1018.7
20220702042847 59 281 0.0 0.0 0.00 0.00 0.00 84 1018.7
20220702042346 59 281 0.0 0.0 0.00 0.00 0.00 83 1018.7
20220702041846 59 281 0.0 0.0 0.00 0.00 0.00 83 1018.5
20220702041344 60 281 0.0 0.0 0.00 0.00 0.00 83 1018.7
20220702040843 60 281 0.0 0.0 0.00 0.00 0.00 82 1018.5
20220702040342 60 281 0.0 0.0 0.00 0.00 0.00 81 1018.3
20220702035841 61 282 0.0 0.0 0.00 0.00 0.00 81 1018.2
20220702035340 61 282 0.0 0.0 0.00 0.00 0.00 79 1018.5
20220702034839 62 282 0.0 0.0 0.00 0.00 0.00 80 1018.4
20220702034337 62 282 0.0 0.0 0.00 0.00 0.00 78 1018.3
20220702033836 62 282 0.0 0.0 0.00 0.00 0.00 78 1018.4
20220702033336 63 282 0.0 0.0 0.00 0.00 0.00 78 1018.3
20220702032835 63 282 0.0 0.0 0.00 0.00 0.00 78 1018.3
20220702032334 64 282 0.0 0.0 0.00 0.00 0.00 76 1018.0
20220702031832 64 282 0.0 0.0 0.00 0.00 0.00 76 1018.3
20220702031332 64 282 0.0 0.0 0.00 0.00 0.00 76 1018.1
20220702030830 65 282 0.0 0.0 0.00 0.00 0.00 75 1018.1
20220702030329 66 282 0.0 0.0 0.00 0.00 0.00 74 1018.1
20220702025828 66 282 1.0 1.0 0.00 0.00 0.00 73 1018.3
20220702025326 66 185 1.0 1.0 0.00 0.00 0.00 73 1018.1
20220702024825 67 185 0.0 0.0 0.00 0.00 0.00 71 1018.2
20220702024324 68 185 0.0 0.0 0.00 0.00 0.00 70 1018.1
20220702023823 68 185 0.0 0.0 0.00 0.00 0.00 70 1018.0
20220702023322 68 185 0.0 0.0 0.00 0.00 0.00 68 1017.9
20220702022820 69 182 0.0 0.0 0.00 0.00 0.00 67 1018.0
20220702022319 69 182 0.0 0.0 0.00 0.00 0.00 66 1017.9
20220702021818 70 82 0.0 0.0 0.00 0.00 0.00 65 1017.7
20220702021317 70 82 0.0 0.0 0.00 0.00 0.00 61 1017.9
20220702020816 70 95 0.0 0.0 0.00 0.00 0.00 61 1018.0
20220702020315 71 96 1.0 1.0 0.00 0.00 0.00 63 1017.7
20220702015814 71 81 0.0 1.0 0.00 0.00 0.00 61 1018.0
20220702015313 72 81 0.0 0.0 0.00 0.00 0.00 59 1018.0
20220702014812 72 20 1.0 1.0 0.00 0.00 0.00 56 1017.4
20220702014312 72 20 3.0 3.0 0.00 0.00 0.00 53 1017.9
20220702013811 73 5 0.0 0.0 0.00 0.00 0.00 55 1018.0
20220702013312 74 13 1.0 2.0 0.00 0.00 0.00 54 1018.1
20220702012811 74 57 0.0 0.0 0.00 0.00 0.00 53 1017.9
20220702012310 75 83 1.0 1.0 0.00 0.00 0.00 51 1017.7
20220702011809 75 353 0.0 0.0 0.00 0.00 0.00 49 1017.7
20220702011308 75 11 2.0 2.0 0.00 0.00 0.00 47 1018.1
20220702010807 75 42 3.0 3.0 0.00 0.00 0.00 47 1018.1
20220702010306 77 170 2.0 2.0 0.00 0.00 0.00 49 1018.1
20220702005805 77 169 1.0 1.0 0.00 0.00 0.00 46 1018.0
20220702005306 76 170 1.0 1.0 0.00 0.00 0.00 47 1018.1
20220702004804 77 219 3.0 5.0 0.00 0.00 0.00 45 1018.2
20220702004304 77 18 3.0 5.0 0.00 0.00 0.00 45 1018.2
20220702003803 77 161 1.0 1.0 0.00 0.00 0.00 49 1018.1
20220702003303 77 161 1.0 1.0 0.00 0.00 0.00 46 1018.4
20220702002802 77 292 1.0 1.0 0.00 0.00 0.00 45 1018.2
20220702002301 77 291 1.0 1.0 0.00 0.00 0.00 43 1018.4
20220702001800 77 178 2.0 2.0 0.00 0.00 0.00 46 1018.4
20220702001259 78 352 3.0 3.0 0.00 0.00 0.00 45 1018.5
20220702000757 78 215 0.0 1.0 0.00 0.00 0.00 47 1018.5
20220702000255 77 214 0.0 1.0 0.00 0.00 0.00 49 1018.4
20220701235754 77 230 1.0 2.0 0.00 0.00 0.00 46 1018.4
20220701235253 77 26 2.0 2.0 0.00 0.00 0.00 46 1018.5
20220701234753 78 348 1.0 1.0 0.00 0.00 0.00 47 1018.7
20220701234252 78 92 0.0 1.0 0.00 0.00 0.00 48 1018.7
20220701233751 79 140 1.0 2.0 0.00 0.00 0.00 47 1018.7
20220701233252 79 141 1.0 1.0 0.00 0.00 0.00 45 1018.7